PHMKPHNG

Guest
Details From PHMK - MOLOKAI
To PHNG - KANEOHE BAY MCAF
Flight Number -
Tags generated
Created
Modified
Stats Distance 42 nm / 78 km
Max Altitude 2,200 ft / 671 m
Waypoints 3
Social Downloads 7
Likes 0
Share VATSIM

Download

Looking for another format? Having issues loading an existing format? Contact us
Advertisement - Login to hide

Notes

Basic altitude profile: - Ascent Rate: 400ft/min - Ascent Speed: 90kts - Cruise Altitude: 3000ft - Cruise Speed: 115kts - Descent Rate: 400ft/min - Descent Speed: 80kts

Route

PHMK GRITL PHNG

ID Type Via Altitude Latitude Longitude Leg Dist Tot Dist Heading (true) Name
O PHMK APT - 0 ft / 0 m 21.15293˚ -157.09650˚ - 0 nm - MOLOKAI
GRITL FIX - 2,200 ft / 671 m 21.32768˚ -157.62336˚ 31 nm 31 nm 290° / 289° -
O PHNG APT - 0 ft / 0 m 21.45044˚ -157.76792˚ 10 nm 42 nm 312° / 312° KANEOHE BAY MCAF

Altitude Profile

Advertisement - Login to hide

PHMK

Details ICAO PHMK (MKK)
Name MOLOKAI
Region USA (Hawaii)
Timezone Pacific/Honolulu (UTC-10.0)
Stats Elevation 454 ft / 138 m (AMSL)
Location 21.152926° -157.096500°
Runways 2
Magnetic Variation 9.500° E

METAR

PHMK 202254Z 04014G24KT 10SM CLR 28/19 A3009 RMK AO2 PK WND 06029/2155 SLP189 T02780189

Decode

TAF

PHMK 202330Z 2100/2124 05017G25KT P6SM FEW025 FM210600 05011G19KT P6SM FEW025 SCT035 FM211900 05016G24KT P6SM FEW025

Decode

Departure Runways

ID Width Length Bearing (true) Bearing (mag) Surface Threshold Offset Overrun Length
05 100 ft / 30 m 4,503 ft / 1,373 m 60.21° 50.71° Asphalt 0 ft / 0 m 0 ft / 0 m
17 100 ft / 30 m 3,130 ft / 954 m 179.90° 170.40° Asphalt 427 ft / 130 m 0 ft / 0 m
23 100 ft / 30 m 4,503 ft / 1,373 m 240.21° 230.71° Asphalt 0 ft / 0 m 0 ft / 0 m
35 100 ft / 30 m 3,130 ft / 954 m 359.90° 350.40° Asphalt 0 ft / 0 m 0 ft / 0 m

PHNG

Details ICAO PHNG (NGF)
Name KANEOHE BAY MCAF
Region USA (Hawaii)
Timezone Pacific/Honolulu (UTC-10.0)
Stats Elevation 22 ft / 7 m (AMSL)
Location 21.450444° -157.767919°
Runways 1
Magnetic Variation 9.489° E

METAR

PHNG 202325Z AUTO 07012G19KT 10SM BKN017 OVC027 27/20 A3008 RMK AO2 T02720200 $

Decode

TAF

TAF TAF PHNG 2021/2121 06012G20KT 9999 SCT020 BKN035 OVC050 QNH3001INS TEMPO 2021/2102 BKN025 OVC040 TEMPO 2104/2109 8000 -SHRA BKN020 OVC045 FM211000 06010G18KT 9999 BKN025 OVC035 QNH3003INS TEMPO 2111/2113 8000 -SHRA OVC025 T28/2023Z T24/2113Z

Decode

Destination Runways

ID Width Length Bearing (true) Bearing (mag) Surface Threshold Offset Overrun Length
04 200 ft / 61 m 7,784 ft / 2,373 m 51.51° 42.02° Asphalt 0 ft / 0 m 0 ft / 0 m
22 200 ft / 61 m 7,784 ft / 2,373 m 231.51° 222.02° Asphalt 0 ft / 0 m 0 ft / 0 m